Tracking 25934 objects as of 11-Aug-2022
HD Live streaming from Space Station
objects crossing your sky now

SL-14 R/B

Track SL-14 R/B now!
10-day predictions


NORAD ID: 33505
Int'l Code: 2009-003B
Perigee: 524.9 km
Apogee: 558.1 km
Inclination: 82.4 °
Period: 95.3 minutes
Semi major axis: 6912 km
RCS: 4.113 m2 (large)
Launch date: January 30, 2009
Source: Commonwealth of Independent States (former USSR) (CIS)
Launch site: PLESETSK MISSILE AND SPACE COMPLEX (PKMTR)

Note: This is a ROCKET BODY
aabbcc
Your satellite tracking list
Your tracking list is empty




NASA's NSSDC Master Catalog

Two Line Element Set (TLE):
1 33505U 09003B   22222.54524332  .00001452  00000-0  85542-4 0  9996
2 33505  82.3888 172.7983 0024048 196.4415 163.6037 15.10601723744614
Source of the keplerian elements: AFSPC